contact:dominique.lefevre@mio.osupytheas.fr, maurice.libes@osupytheas.fr, didier.mallarino@osupytheas.fr
Project:EMSO http://www.emso-fr.org/EMSO-France
Depth: 2436.0 m
Title:EMSO Ligure Ouest : Data MII capteur MICROCAT
DateTime_Computer,Latitude,Longitude,Temperature,Conductivity,Pressure,DateTime_Instrument
DateTime_Computer,Latitude,Longitude,degC,S m-1,dbar,DateTime_Instrument
2020-03-10T00:00:08Z,42.805,6.029,13.2964,4.59973,2469.853,2020-3-10T02:00:44Z
2020-03-10T00:03:11Z,42.805,6.029,13.2964,4.59985,2469.876,2020-3-10T02:03:48Z
2020-03-10T00:06:14Z,42.805,6.029,13.2967,4.59976,2469.876,2020-3-10T02:06:51Z
2020-03-10T00:09:17Z,42.805,6.029,13.2967,4.59979,2469.9,2020-3-10T02:09:54Z
2020-03-10T00:12:21Z,42.805,6.029,13.2969,4.59972,2469.876,2020-3-10T02:12:57Z
2020-03-10T00:15:24Z,42.805,6.029,13.2964,4.59973,2469.853,2020-3-10T02:16:00Z
2020-03-10T00:18:27Z,42.805,6.029,13.2968,4.59973,2469.89,2020-3-10T02:19:04Z
2020-03-10T00:21:30Z,42.805,6.029,13.2963,4.59979,2469.83,2020-3-10T02:22:07Z
2020-03-10T00:24:34Z,42.805,6.029,13.2969,4.59975,2469.914,2020-3-10T02:25:10Z
2020-03-10T00:27:37Z,42.805,6.029,13.2966,4.59976,2469.876,2020-3-10T02:28:14Z
2020-03-10T00:30:40Z,42.805,6.029,13.2970,4.59972,2469.853,2020-3-10T02:31:17Z
2020-03-10T00:33:44Z,42.805,6.029,13.2968,4.59981,2469.876,2020-3-10T02:34:20Z
2020-03-10T00:36:47Z,42.805,6.029,13.2968,4.59975,2469.867,2020-3-10T02:37:24Z
2020-03-10T00:39:50Z,42.805,6.029,13.2967,4.59979,2469.867,2020-3-10T02:40:27Z
2020-03-10T00:42:54Z,42.805,6.029,13.2972,4.59972,2469.844,2020-3-10T02:43:30Z
2020-03-10T00:45:57Z,42.805,6.029,13.2968,4.59978,2469.89,2020-3-10T02:46:34Z
2020-03-10T00:49:00Z,42.805,6.029,13.2968,4.59968,2469.853,2020-3-10T02:49:37Z
2020-03-10T00:52:03Z,42.805,6.029,13.2966,4.59973,2469.867,2020-3-10T02:52:40Z
2020-03-10T00:55:07Z,42.805,6.029,13.2966,4.59972,2469.853,2020-3-10T02:55:43Z
2020-03-10T00:58:10Z,42.805,6.029,13.2967,4.59978,2469.867,2020-3-10T02:58:47Z
2020-03-10T01:01:13Z,42.805,6.029,13.2967,4.59977,2469.806,2020-3-10T03:01:50Z
2020-03-10T01:04:16Z,42.805,6.029,13.2970,4.59978,2469.83,2020-3-10T03:04:53Z
2020-03-10T01:07:20Z,42.805,6.029,13.2964,4.59979,2469.853,2020-3-10T03:07:56Z
2020-03-10T01:10:23Z,42.805,6.029,13.2964,4.59970,2469.867,2020-3-10T03:11:00Z
2020-03-10T01:13:26Z,42.805,6.029,13.2962,4.59972,2469.853,2020-3-10T03:14:03Z
2020-03-10T01:16:29Z,42.805,6.029,13.2967,4.59967,2469.844,2020-3-10T03:17:06Z
2020-03-10T01:19:33Z,42.805,6.029,13.2963,4.59972,2469.853,2020-3-10T03:20:09Z
2020-03-10T01:22:36Z,42.805,6.029,13.2965,4.59969,2469.83,2020-3-10T03:23:13Z
2020-03-10T01:25:39Z,42.805,6.029,13.2965,4.59973,2469.83,2020-3-10T03:26:16Z
2020-03-10T01:28:42Z,42.805,6.029,13.2971,4.59968,2469.806,2020-3-10T03:29:19Z
2020-03-10T01:31:46Z,42.805,6.029,13.2967,4.59970,2469.83,2020-3-10T03:32:22Z
2020-03-10T01:34:49Z,42.805,6.029,13.2966,4.59968,2469.821,2020-3-10T03:35:26Z
2020-03-10T01:37:52Z,42.805,6.029,13.2969,4.59968,2469.83,2020-3-10T03:38:29Z
2020-03-10T01:40:55Z,42.805,6.029,13.2968,4.59971,2469.844,2020-3-10T03:41:32Z
2020-03-10T01:43:58Z,42.805,6.029,13.2965,4.59968,2469.797,2020-3-10T03:44:35Z
2020-03-10T01:47:02Z,42.805,6.029,13.2967,4.59969,2469.83,2020-3-10T03:47:38Z
2020-03-10T01:50:05Z,42.805,6.029,13.2967,4.59970,2469.853,2020-3-10T03:50:42Z
2020-03-10T01:53:08Z,42.805,6.029,13.2966,4.59966,2469.806,2020-3-10T03:53:45Z
2020-03-10T01:56:11Z,42.805,6.029,13.2967,4.59968,2469.806,2020-3-10T03:56:48Z
2020-03-10T01:59:15Z,42.805,6.029,13.2964,4.59968,2469.853,2020-3-10T03:59:52Z
2020-03-10T02:02:18Z,42.805,6.029,13.2970,4.59966,2469.806,2020-3-10T04:02:55Z
2020-03-10T02:05:21Z,42.805,6.029,13.2966,4.59975,2469.806,2020-3-10T04:05:58Z
2020-03-10T02:08:25Z,42.805,6.029,13.2967,4.59966,2469.806,2020-3-10T04:09:01Z
2020-03-10T02:11:28Z,42.805,6.029,13.2968,4.59966,2469.821,2020-3-10T04:12:05Z
2020-03-10T02:14:31Z,42.805,6.029,13.2966,4.59966,2469.844,2020-3-10T04:15:08Z
2020-03-10T02:17:34Z,42.805,6.029,13.2967,4.59966,2469.853,2020-3-10T04:18:11Z
2020-03-10T02:20:38Z,42.805,6.029,13.2965,4.59966,2469.821,2020-3-10T04:21:14Z
2020-03-10T02:23:41Z,42.805,6.029,13.2966,4.59967,2469.821,2020-3-10T04:24:18Z
2020-03-10T02:26:44Z,42.805,6.029,13.2966,4.59966,2469.844,2020-3-10T04:27:21Z
2020-03-10T02:29:48Z,42.805,6.029,13.2965,4.59965,2469.83,2020-3-10T04:30:24Z
2020-03-10T02:32:51Z,42.805,6.029,13.2965,4.59964,2469.83,2020-3-10T04:33:27Z
2020-03-10T02:35:54Z,42.805,6.029,13.2964,4.59966,2469.867,2020-3-10T04:36:31Z
2020-03-10T02:38:57Z,42.805,6.029,13.2967,4.59967,2469.867,2020-3-10T04:39:34Z
2020-03-10T02:42:00Z,42.805,6.029,13.2967,4.59964,2469.853,2020-3-10T04:42:37Z
2020-03-10T02:45:04Z,42.805,6.029,13.2967,4.59966,2469.83,2020-3-10T04:45:40Z
2020-03-10T02:48:07Z,42.805,6.029,13.2967,4.59967,2469.876,2020-3-10T04:48:44Z
2020-03-10T02:51:10Z,42.805,6.029,13.2970,4.59966,2469.83,2020-3-10T04:51:47Z
2020-03-10T02:54:14Z,42.805,6.029,13.2967,4.59966,2469.853,2020-3-10T04:54:50Z
2020-03-10T02:57:17Z,42.805,6.029,13.2965,4.59963,2469.853,2020-3-10T04:57:54Z
2020-03-10T03:00:20Z,42.805,6.029,13.2967,4.59966,2469.876,2020-3-10T05:00:57Z
2020-03-10T03:03:23Z,42.805,6.029,13.2970,4.59965,2469.89,2020-3-10T05:04:00Z
2020-03-10T03:06:26Z,42.805,6.029,13.2968,4.59965,2469.89,2020-3-10T05:07:03Z
2020-03-10T03:09:30Z,42.805,6.029,13.2969,4.59966,2469.853,2020-3-10T05:10:06Z
2020-03-10T03:12:33Z,42.805,6.029,13.2964,4.59965,2469.876,2020-3-10T05:13:10Z
2020-03-10T03:15:36Z,42.805,6.029,13.2966,4.59967,2469.9,2020-3-10T05:16:13Z
2020-03-10T03:18:40Z,42.805,6.029,13.2968,4.59966,2469.876,2020-3-10T05:19:16Z
2020-03-10T03:21:43Z,42.805,6.029,13.2969,4.59967,2469.876,2020-3-10T05:22:20Z
2020-03-10T03:24:46Z,42.805,6.029,13.2968,4.59966,2469.9,2020-3-10T05:25:23Z
2020-03-10T03:27:49Z,42.805,6.029,13.2966,4.59968,2469.914,2020-3-10T05:28:26Z
2020-03-10T03:30:52Z,42.805,6.029,13.2964,4.59973,2469.89,2020-3-10T05:31:29Z
2020-03-10T03:33:56Z,42.805,6.029,13.2964,4.59965,2469.876,2020-3-10T05:34:32Z
2020-03-10T03:36:59Z,42.805,6.029,13.2967,4.59966,2469.923,2020-3-10T05:37:36Z
2020-03-10T03:40:02Z,42.805,6.029,13.2969,4.59966,2469.9,2020-3-10T05:40:39Z
2020-03-10T03:43:06Z,42.805,6.029,13.2969,4.59968,2469.914,2020-3-10T05:43:42Z
2020-03-10T03:46:09Z,42.805,6.029,13.2967,4.59964,2469.937,2020-3-10T05:46:46Z
2020-03-10T03:49:12Z,42.805,6.029,13.2963,4.59966,2469.947,2020-3-10T05:49:49Z
2020-03-10T03:52:15Z,42.805,6.029,13.2964,4.59968,2469.89,2020-3-10T05:52:52Z
2020-03-10T03:55:19Z,42.805,6.029,13.2965,4.59966,2469.9,2020-3-10T05:55:55Z
2020-03-10T03:58:22Z,42.805,6.029,13.2967,4.59966,2469.937,2020-3-10T05:58:59Z
2020-03-10T04:01:25Z,42.805,6.029,13.2971,4.59966,2469.9,2020-3-10T06:02:02Z
2020-03-10T04:04:28Z,42.805,6.029,13.2962,4.59965,2469.914,2020-3-10T06:05:05Z
2020-03-10T04:07:32Z,42.805,6.029,13.2967,4.59966,2469.96,2020-3-10T06:08:08Z
2020-03-10T04:10:35Z,42.805,6.029,13.2968,4.59964,2469.96,2020-3-10T06:11:12Z
2020-03-10T04:13:38Z,42.805,6.029,13.2966,4.59964,2470.007,2020-3-10T06:14:15Z
2020-03-10T04:16:41Z,42.805,6.029,13.2968,4.59964,2469.984,2020-3-10T06:17:18Z
2020-03-10T04:19:45Z,42.805,6.029,13.2965,4.59965,2469.97,2020-3-10T06:20:21Z
2020-03-10T04:22:48Z,42.805,6.029,13.2967,4.59966,2469.947,2020-3-10T06:23:25Z
2020-03-10T04:25:51Z,42.805,6.029,13.2964,4.59966,2469.993,2020-3-10T06:26:28Z
2020-03-10T04:28:54Z,42.805,6.029,13.2970,4.59966,2469.97,2020-3-10T06:29:31Z
2020-03-10T04:31:58Z,42.805,6.029,13.2967,4.59966,2469.97,2020-3-10T06:32:34Z
2020-03-10T04:35:01Z,42.805,6.029,13.2965,4.59965,2469.984,2020-3-10T06:35:38Z
2020-03-10T04:38:04Z,42.805,6.029,13.2966,4.59964,2469.993,2020-3-10T06:38:41Z
2020-03-10T04:41:07Z,42.805,6.029,13.2967,4.59966,2469.993,2020-3-10T06:41:44Z
2020-03-10T04:44:11Z,42.805,6.029,13.2964,4.59968,2470.017,2020-3-10T06:44:47Z
2020-03-10T04:47:14Z,42.805,6.029,13.2965,4.59969,2469.993,2020-3-10T06:47:51Z
2020-03-10T04:50:17Z,42.805,6.029,13.2967,4.59966,2469.993,2020-3-10T06:50:54Z
2020-03-10T04:53:21Z,42.805,6.029,13.2961,4.59966,2470.017,2020-3-10T06:53:57Z
2020-03-10T04:56:24Z,42.805,6.029,13.2962,4.59966,2470.03,2020-3-10T06:57:01Z
2020-03-10T04:59:27Z,42.805,6.029,13.2967,4.59966,2470.04,2020-3-10T07:00:04Z
2020-03-10T05:02:30Z,42.805,6.029,13.2968,4.59967,2470.03,2020-3-10T07:03:07Z
2020-03-10T05:05:33Z,42.805,6.029,13.2968,4.59966,2469.984,2020-3-10T07:06:10Z
2020-03-10T05:08:37Z,42.805,6.029,13.2964,4.59966,2470.04,2020-3-10T07:09:13Z
2020-03-10T05:11:40Z,42.805,6.029,13.2961,4.59966,2470.04,2020-3-10T07:12:17Z
2020-03-10T05:14:43Z,42.805,6.029,13.2962,4.59972,2470.017,2020-3-10T07:15:20Z
2020-03-10T05:17:46Z,42.805,6.029,13.2966,4.59967,2470.04,2020-3-10T07:18:23Z
2020-03-10T05:20:50Z,42.805,6.029,13.2964,4.59968,2470.077,2020-3-10T07:21:26Z
2020-03-10T05:23:53Z,42.805,6.029,13.2969,4.59968,2470.017,2020-3-10T07:24:30Z
2020-03-10T05:26:56Z,42.805,6.029,13.2965,4.59968,2470.053,2020-3-10T07:27:33Z
2020-03-10T05:29:59Z,42.805,6.029,13.2964,4.59966,2470.017,2020-3-10T07:30:36Z
2020-03-10T05:33:03Z,42.805,6.029,13.2965,4.59968,2470.04,2020-3-10T07:33:39Z
2020-03-10T05:36:06Z,42.805,6.029,13.2966,4.59967,2470.04,2020-3-10T07:36:43Z
2020-03-10T05:39:09Z,42.805,6.029,13.2962,4.59969,2470.063,2020-3-10T07:39:46Z
2020-03-10T05:42:12Z,42.805,6.029,13.2965,4.59966,2470.087,2020-3-10T07:42:49Z
2020-03-10T05:45:16Z,42.805,6.029,13.2967,4.59966,2470.1,2020-3-10T07:45:52Z
2020-03-10T05:48:19Z,42.805,6.029,13.2967,4.59970,2470.087,2020-3-10T07:48:56Z
2020-03-10T05:51:22Z,42.805,6.029,13.2966,4.59966,2470.087,2020-3-10T07:51:59Z
2020-03-10T05:54:25Z,42.805,6.029,13.2967,4.59967,2470.063,2020-3-10T07:55:02Z
2020-03-10T05:57:29Z,42.805,6.029,13.2963,4.59966,2470.1,2020-3-10T07:58:05Z
2020-03-10T06:00:32Z,42.805,6.029,13.2967,4.59968,2470.053,2020-3-10T08:01:09Z
2020-03-10T06:03:35Z,42.805,6.029,13.2965,4.59970,2470.1,2020-3-10T08:04:12Z
2020-03-10T06:06:38Z,42.805,6.029,13.2963,4.59968,2470.124,2020-3-10T08:07:15Z
2020-03-10T06:09:42Z,42.805,6.029,13.2964,4.59968,2470.1,2020-3-10T08:10:18Z
2020-03-10T06:12:45Z,42.805,6.029,13.2966,4.59970,2470.124,2020-3-10T08:13:22Z
2020-03-10T06:15:48Z,42.805,6.029,13.2967,4.59975,2470.11,2020-3-10T08:16:25Z
2020-03-10T06:18:51Z,42.805,6.029,13.2962,4.59967,2470.147,2020-3-10T08:19:28Z
2020-03-10T06:21:55Z,42.805,6.029,13.2968,4.59966,2470.077,2020-3-10T08:22:31Z
2020-03-10T06:24:58Z,42.805,6.029,13.2967,4.59969,2470.171,2020-3-10T08:25:34Z
2020-03-10T06:28:01Z,42.805,6.029,13.2967,4.59967,2470.087,2020-3-10T08:28:38Z
2020-03-10T06:31:04Z,42.805,6.029,13.2966,4.59971,2470.11,2020-3-10T08:31:41Z
2020-03-10T06:34:08Z,42.805,6.029,13.2970,4.59972,2470.133,2020-3-10T08:34:44Z
2020-03-10T06:37:11Z,42.805,6.029,13.2991,4.60010,2470.194,2020-3-10T08:37:48Z
2020-03-10T06:40:14Z,42.805,6.029,13.2983,4.59976,2470.133,2020-3-10T08:40:51Z
2020-03-10T06:43:17Z,42.805,6.029,13.2982,4.59974,2470.11,2020-3-10T08:43:54Z
2020-03-10T06:46:20Z,42.805,6.029,13.2981,4.59985,2470.18,2020-3-10T08:46:57Z
2020-03-10T06:49:24Z,42.805,6.029,13.2978,4.59971,2470.124,2020-3-10T08:50:00Z
2020-03-10T06:52:27Z,42.805,6.029,13.2986,4.59991,2470.11,2020-3-10T08:53:04Z
2020-03-10T06:55:30Z,42.805,6.029,13.2996,4.59995,2470.194,2020-3-10T08:56:07Z
2020-03-10T06:58:34Z,42.805,6.029,13.3004,4.60001,2470.133,2020-3-10T08:59:10Z
2020-03-10T07:01:37Z,42.805,6.029,13.2989,4.60011,2470.171,2020-3-10T09:02:14Z
2020-03-10T07:04:40Z,42.805,6.029,13.3000,4.60002,2470.156,2020-3-10T09:05:17Z
2020-03-10T07:07:43Z,42.805,6.029,13.2986,4.60024,2470.156,2020-3-10T09:08:20Z
2020-03-10T07:10:46Z,42.805,6.029,13.2990,4.60002,2470.171,2020-3-10T09:11:23Z
2020-03-10T07:13:50Z,42.805,6.029,13.2980,4.60014,2470.156,2020-3-10T09:14:26Z
2020-03-10T07:16:53Z,42.805,6.029,13.2990,4.60013,2470.171,2020-3-10T09:17:30Z
2020-03-10T07:19:56Z,42.805,6.029,13.3000,4.60011,2470.156,2020-3-10T09:20:33Z
2020-03-10T07:22:59Z,42.805,6.029,13.2995,4.60033,2470.171,2020-3-10T09:23:36Z
2020-03-10T07:26:03Z,42.805,6.029,13.2999,4.60008,2470.171,2020-3-10T09:26:39Z
2020-03-10T07:29:06Z,42.805,6.029,13.2998,4.60021,2470.18,2020-3-10T09:29:43Z
2020-03-10T07:32:09Z,42.805,6.029,13.2995,4.60018,2470.156,2020-3-10T09:32:46Z
2020-03-10T07:35:12Z,42.805,6.029,13.2988,4.60044,2470.18,2020-3-10T09:35:49Z
2020-03-10T07:38:16Z,42.805,6.029,13.3001,4.60029,2470.133,2020-3-10T09:38:52Z
2020-03-10T07:41:19Z,42.805,6.029,13.3004,4.60014,2470.18,2020-3-10T09:41:56Z
2020-03-10T07:44:22Z,42.805,6.029,13.3008,4.60039,2470.194,2020-3-10T09:44:59Z
2020-03-10T07:47:26Z,42.805,6.029,13.2993,4.60024,2470.171,2020-3-10T09:48:02Z
2020-03-10T07:50:29Z,42.805,6.029,13.2997,4.60054,2470.18,2020-3-10T09:51:06Z
2020-03-10T07:53:32Z,42.805,6.029,13.2994,4.60051,2470.156,2020-3-10T09:54:09Z
2020-03-10T07:56:35Z,42.805,6.029,13.3019,4.60058,2470.133,2020-3-10T09:57:12Z
2020-03-10T07:59:38Z,42.805,6.029,13.2989,4.60049,2470.171,2020-3-10T10:00:15Z
2020-03-10T08:02:42Z,42.805,6.029,13.2998,4.60057,2470.18,2020-3-10T10:03:18Z
2020-03-10T08:05:45Z,42.805,6.029,13.2988,4.60057,2470.194,2020-3-10T10:06:22Z
2020-03-10T08:08:48Z,42.805,6.029,13.2990,4.60055,2470.194,2020-3-10T10:09:25Z
2020-03-10T08:11:52Z,42.805,6.029,13.2990,4.60062,2470.124,2020-3-10T10:12:28Z
2020-03-10T08:14:55Z,42.805,6.029,13.2998,4.60057,2470.143,2020-3-10T10:15:32Z
2020-03-10T08:17:58Z,42.805,6.029,13.2987,4.60070,2470.133,2020-3-10T10:18:35Z
2020-03-10T08:21:01Z,42.805,6.029,13.2998,4.60054,2470.217,2020-3-10T10:21:38Z
2020-03-10T08:24:05Z,42.805,6.029,13.2982,4.60046,2470.156,2020-3-10T10:24:41Z
2020-03-10T08:27:08Z,42.805,6.029,13.2986,4.60033,2470.156,2020-3-10T10:27:45Z
2020-03-10T08:30:11Z,42.805,6.029,13.3006,4.60060,2470.18,2020-3-10T10:30:48Z
2020-03-10T08:33:14Z,42.805,6.029,13.2988,4.60062,2470.203,2020-3-10T10:33:51Z
2020-03-10T08:36:18Z,42.805,6.029,13.2983,4.60021,2470.171,2020-3-10T10:36:54Z
2020-03-10T08:39:21Z,42.805,6.029,13.2983,4.60043,2470.133,2020-3-10T10:39:58Z
2020-03-10T08:42:24Z,42.805,6.029,13.3002,4.60050,2470.18,2020-3-10T10:43:01Z
2020-03-10T08:45:27Z,42.805,6.029,13.2993,4.60043,2470.171,2020-3-10T10:46:04Z
2020-03-10T08:48:31Z,42.805,6.029,13.2983,4.60036,2470.171,2020-3-10T10:49:07Z
2020-03-10T08:51:34Z,42.805,6.029,13.2993,4.60037,2470.147,2020-3-10T10:52:11Z
2020-03-10T08:54:37Z,42.805,6.029,13.2989,4.60060,2470.133,2020-3-10T10:55:14Z
2020-03-10T08:57:40Z,42.805,6.029,13.2986,4.60036,2470.156,2020-3-10T10:58:17Z
2020-03-10T09:00:44Z,42.805,6.029,13.2985,4.60075,2470.156,2020-3-10T11:01:20Z
2020-03-10T09:03:47Z,42.805,6.029,13.2976,4.60019,2470.147,2020-3-10T11:04:24Z
2020-03-10T09:06:50Z,42.805,6.029,13.2982,4.60046,2470.171,2020-3-10T11:07:27Z
2020-03-10T09:09:53Z,42.805,6.029,13.2976,4.60026,2470.156,2020-3-10T11:10:30Z
2020-03-10T09:12:57Z,42.805,6.029,13.2976,4.60013,2470.156,2020-3-10T11:13:33Z
2020-03-10T09:16:00Z,42.805,6.029,13.2988,4.60022,2470.203,2020-3-10T11:16:37Z
2020-03-10T09:19:03Z,42.805,6.029,13.2986,4.60003,2470.147,2020-3-10T11:19:40Z
2020-03-10T09:22:06Z,42.805,6.029,13.2990,4.60033,2470.194,2020-3-10T11:22:43Z
2020-03-10T09:25:10Z,42.805,6.029,13.2979,4.60037,2470.133,2020-3-10T11:25:46Z
2020-03-10T09:28:13Z,42.805,6.029,13.2993,4.60012,2470.156,2020-3-10T11:28:50Z
2020-03-10T09:31:16Z,42.805,6.029,13.2981,4.60043,2470.147,2020-3-10T11:31:53Z
2020-03-10T09:34:19Z,42.805,6.029,13.2990,4.60001,2470.11,2020-3-10T11:34:56Z
2020-03-10T09:37:23Z,42.805,6.029,13.2976,4.60021,2470.171,2020-3-10T11:38:00Z
2020-03-10T09:40:26Z,42.805,6.029,13.2978,4.60028,2470.133,2020-3-10T11:41:03Z
2020-03-10T09:43:29Z,42.805,6.029,13.2984,4.60017,2470.11,2020-3-10T11:44:06Z
2020-03-10T09:46:33Z,42.805,6.029,13.2987,4.60029,2470.11,2020-3-10T11:47:09Z
2020-03-10T09:49:36Z,42.805,6.029,13.2993,4.60021,2470.147,2020-3-10T11:50:13Z
2020-03-10T09:52:39Z,42.805,6.029,13.2978,4.60016,2470.18,2020-3-10T11:53:16Z
2020-03-10T09:55:43Z,42.805,6.029,13.2983,4.59998,2470.171,2020-3-10T11:56:19Z
2020-03-10T09:58:46Z,42.805,6.029,13.2974,4.60007,2470.147,2020-3-10T11:59:22Z
2020-03-10T10:01:49Z,42.805,6.029,13.2977,4.60022,2470.133,2020-3-10T12:02:26Z
2020-03-10T10:04:52Z,42.805,6.029,13.2990,4.60039,2470.133,2020-3-10T12:05:29Z
2020-03-10T10:07:55Z,42.805,6.029,13.2982,4.60046,2470.147,2020-3-10T12:08:32Z
2020-03-10T10:10:59Z,42.805,6.029,13.2987,4.60042,2470.133,2020-3-10T12:11:36Z
2020-03-10T10:14:02Z,42.805,6.029,13.2998,4.60029,2470.124,2020-3-10T12:14:39Z
2020-03-10T10:17:05Z,42.805,6.029,13.2998,4.60041,2470.156,2020-3-10T12:17:42Z
2020-03-10T10:20:09Z,42.805,6.029,13.2973,4.60052,2470.1,2020-3-10T12:20:45Z
2020-03-10T10:23:12Z,42.805,6.029,13.2991,4.60037,2470.124,2020-3-10T12:23:48Z
2020-03-10T10:26:15Z,42.805,6.029,13.3000,4.60022,2470.147,2020-3-10T12:26:52Z
2020-03-10T10:29:18Z,42.805,6.029,13.2974,4.60026,2470.087,2020-3-10T12:29:55Z
2020-03-10T10:32:22Z,42.805,6.029,13.2986,4.60061,2470.147,2020-3-10T12:32:58Z
2020-03-10T10:35:25Z,42.805,6.029,13.2979,4.60030,2470.133,2020-3-10T12:36:02Z
2020-03-10T10:38:28Z,42.805,6.029,13.2977,4.60031,2470.11,2020-3-10T12:39:05Z
2020-03-10T10:41:31Z,42.805,6.029,13.2981,4.60009,2470.1,2020-3-10T12:42:08Z
2020-03-10T10:44:35Z,42.805,6.029,13.2996,4.59998,2470.11,2020-3-10T12:45:11Z
2020-03-10T10:47:38Z,42.805,6.029,13.2990,4.60033,2470.124,2020-3-10T12:48:15Z
2020-03-10T10:50:41Z,42.805,6.029,13.2994,4.60038,2470.1,2020-3-10T12:51:18Z
2020-03-10T10:53:44Z,42.805,6.029,13.2983,4.60026,2470.1,2020-3-10T12:54:21Z
2020-03-10T10:56:48Z,42.805,6.029,13.2973,4.60031,2470.11,2020-3-10T12:57:24Z
2020-03-10T10:59:51Z,42.805,6.029,13.2983,4.60014,2470.087,2020-3-10T13:00:28Z
2020-03-10T11:02:55Z,42.805,6.029,13.2990,4.60004,2470.087,2020-3-10T13:03:31Z
2020-03-10T11:05:58Z,42.805,6.029,13.2993,4.60014,2470.077,2020-3-10T13:06:35Z
2020-03-10T11:09:01Z,42.805,6.029,13.2993,4.60034,2470.063,2020-3-10T13:09:38Z
2020-03-10T11:12:04Z,42.805,6.029,13.2992,4.60067,2470.087,2020-3-10T13:12:41Z
2020-03-10T11:15:08Z,42.805,6.029,13.2991,4.60013,2470.053,2020-3-10T13:15:44Z
2020-03-10T11:18:11Z,42.805,6.029,13.2981,4.60011,2470.063,2020-3-10T13:18:48Z
2020-03-10T11:21:14Z,42.805,6.029,13.3031,4.60017,2470.04,2020-3-10T13:21:51Z
2020-03-10T11:24:17Z,42.805,6.029,13.2986,4.60050,2470.017,2020-3-10T13:24:54Z
2020-03-10T11:27:21Z,42.805,6.029,13.3004,4.60032,2470.053,2020-3-10T13:27:57Z
2020-03-10T11:30:24Z,42.805,6.029,13.3019,4.60039,2470.063,2020-3-10T13:31:01Z
2020-03-10T11:33:27Z,42.805,6.029,13.3017,4.60037,2470.04,2020-3-10T13:34:04Z
2020-03-10T11:36:30Z,42.805,6.029,13.3006,4.60046,2470.017,2020-3-10T13:37:07Z
2020-03-10T11:39:34Z,42.805,6.029,13.3008,4.60024,2470.04,2020-3-10T13:40:10Z
2020-03-10T11:42:37Z,42.805,6.029,13.2996,4.60066,2470.053,2020-3-10T13:43:14Z
2020-03-10T11:45:40Z,42.805,6.029,13.3006,4.60031,2470.017,2020-3-10T13:46:17Z
2020-03-10T11:48:44Z,42.805,6.029,13.3009,4.60052,2470.03,2020-3-10T13:49:20Z
2020-03-10T11:51:47Z,42.805,6.029,13.2993,4.60031,2470.053,2020-3-10T13:52:24Z
2020-03-10T11:54:50Z,42.805,6.029,13.2992,4.60052,2469.993,2020-3-10T13:55:27Z
2020-03-10T11:57:53Z,42.805,6.029,13.3009,4.60059,2470.007,2020-3-10T13:58:30Z
2020-03-10T12:00:57Z,42.805,6.029,13.3045,4.60020,2470.03,2020-3-10T14:01:33Z
2020-03-10T12:04:00Z,42.805,6.029,13.3009,4.60053,2470.017,2020-3-10T14:04:37Z
2020-03-10T12:07:03Z,42.805,6.029,13.3038,4.60043,2469.993,2020-3-10T14:07:40Z
2020-03-10T12:10:06Z,42.805,6.029,13.3029,4.60038,2470.03,2020-3-10T14:10:43Z
2020-03-10T12:13:10Z,42.805,6.029,13.3031,4.60009,2470.017,2020-3-10T14:13:46Z
2020-03-10T12:16:13Z,42.805,6.029,13.3000,4.60038,2470.03,2020-3-10T14:16:50Z
2020-03-10T12:19:16Z,42.805,6.029,13.3016,4.60036,2470.007,2020-3-10T14:19:53Z
2020-03-10T12:22:19Z,42.805,6.029,13.3003,4.60060,2469.993,2020-3-10T14:22:56Z
2020-03-10T12:25:22Z,42.805,6.029,13.3018,4.60034,2469.993,2020-3-10T14:25:59Z
2020-03-10T12:28:26Z,42.805,6.029,13.3020,4.60024,2469.993,2020-3-10T14:29:02Z
2020-03-10T12:31:29Z,42.805,6.029,13.3033,4.60013,2469.984,2020-3-10T14:32:06Z
2020-03-10T12:34:32Z,42.805,6.029,13.3017,4.60016,2470.007,2020-3-10T14:35:09Z
2020-03-10T12:37:36Z,42.805,6.029,13.3026,4.60023,2469.97,2020-3-10T14:38:12Z
2020-03-10T12:40:39Z,42.805,6.029,13.3036,4.60035,2469.97,2020-3-10T14:41:16Z
2020-03-10T12:43:42Z,42.805,6.029,13.3047,4.59995,2469.947,2020-3-10T14:44:19Z
2020-03-10T12:46:45Z,42.805,6.029,13.3027,4.60062,2469.97,2020-3-10T14:47:22Z
2020-03-10T12:49:48Z,42.805,6.029,13.3019,4.60038,2470.007,2020-3-10T14:50:25Z
2020-03-10T12:52:52Z,42.805,6.029,13.3029,4.60036,2469.993,2020-3-10T14:53:28Z
2020-03-10T12:55:55Z,42.805,6.029,13.3041,4.60006,2469.947,2020-3-10T14:56:32Z
2020-03-10T12:58:58Z,42.805,6.029,13.3021,4.60015,2469.984,2020-3-10T14:59:35Z
2020-03-10T13:02:01Z,42.805,6.029,13.3006,4.60000,2469.956,2020-3-10T15:02:38Z
2020-03-10T13:05:05Z,42.805,6.029,13.3004,4.60004,2469.96,2020-3-10T15:05:42Z
2020-03-10T13:08:08Z,42.805,6.029,13.2993,4.59983,2469.984,2020-3-10T15:08:45Z
2020-03-10T13:11:11Z,42.805,6.029,13.2993,4.59999,2469.947,2020-3-10T15:11:48Z
2020-03-10T13:14:15Z,42.805,6.029,13.3011,4.60013,2469.923,2020-3-10T15:14:51Z
2020-03-10T13:17:18Z,42.805,6.029,13.3000,4.60004,2469.96,2020-3-10T15:17:55Z
2020-03-10T13:20:21Z,42.805,6.029,13.3008,4.60006,2469.984,2020-3-10T15:20:58Z
2020-03-10T13:23:24Z,42.805,6.029,13.2979,4.60003,2469.97,2020-3-10T15:24:01Z
2020-03-10T13:26:27Z,42.805,6.029,13.2988,4.60014,2469.937,2020-3-10T15:27:04Z
2020-03-10T13:29:31Z,42.805,6.029,13.3007,4.59995,2469.96,2020-3-10T15:30:08Z
2020-03-10T13:32:34Z,42.805,6.029,13.3034,4.60006,2469.947,2020-3-10T15:33:11Z
2020-03-10T13:35:37Z,42.805,6.029,13.3024,4.60004,2469.97,2020-3-10T15:36:14Z
2020-03-10T13:38:41Z,42.805,6.029,13.3024,4.60004,2469.96,2020-3-10T15:39:17Z
2020-03-10T13:41:44Z,42.805,6.029,13.3031,4.60031,2469.937,2020-3-10T15:42:21Z
2020-03-10T13:44:47Z,42.805,6.029,13.3024,4.60005,2469.96,2020-3-10T15:45:24Z
2020-03-10T13:47:50Z,42.805,6.029,13.3015,4.60020,2469.947,2020-3-10T15:48:27Z
2020-03-10T13:50:54Z,42.805,6.029,13.3015,4.60039,2469.923,2020-3-10T15:51:31Z
2020-03-10T13:53:57Z,42.805,6.029,13.3014,4.60041,2469.937,2020-3-10T15:54:34Z
2020-03-10T13:57:00Z,42.805,6.029,13.3053,4.60043,2469.923,2020-3-10T15:57:37Z
2020-03-10T14:00:04Z,42.805,6.029,13.3053,4.60021,2469.937,2020-3-10T16:00:40Z
2020-03-10T14:03:07Z,42.805,6.029,13.3065,4.60015,2469.923,2020-3-10T16:03:43Z
2020-03-10T14:06:10Z,42.805,6.029,13.3022,4.60011,2469.914,2020-3-10T16:06:47Z
2020-03-10T14:09:13Z,42.805,6.029,13.3023,4.60022,2469.937,2020-3-10T16:09:50Z
2020-03-10T14:12:16Z,42.805,6.029,13.3004,4.60024,2469.937,2020-3-10T16:12:53Z
2020-03-10T14:15:20Z,42.805,6.029,13.2964,4.60024,2469.937,2020-3-10T16:15:56Z
2020-03-10T14:18:23Z,42.805,6.029,13.2971,4.59983,2469.914,2020-3-10T16:19:00Z
2020-03-10T14:21:26Z,42.805,6.029,13.2964,4.59988,2469.914,2020-3-10T16:22:03Z
2020-03-10T14:24:30Z,42.805,6.029,13.2971,4.59998,2469.937,2020-3-10T16:25:06Z
2020-03-10T14:27:33Z,42.805,6.029,13.2964,4.60001,2469.9,2020-3-10T16:28:09Z
2020-03-10T14:30:36Z,42.805,6.029,13.2967,4.60005,2469.923,2020-3-10T16:31:13Z
2020-03-10T14:33:39Z,42.805,6.029,13.2963,4.59986,2469.96,2020-3-10T16:34:16Z
2020-03-10T14:36:42Z,42.805,6.029,13.2967,4.59990,2469.923,2020-3-10T16:37:19Z
2020-03-10T14:39:46Z,42.805,6.029,13.2964,4.59987,2469.867,2020-3-10T16:40:22Z
2020-03-10T14:42:49Z,42.805,6.029,13.2968,4.59984,2469.9,2020-3-10T16:43:26Z
2020-03-10T14:45:52Z,42.805,6.029,13.2967,4.59979,2469.876,2020-3-10T16:46:29Z
2020-03-10T14:48:55Z,42.805,6.029,13.2967,4.59981,2469.9,2020-3-10T16:49:32Z
2020-03-10T14:51:58Z,42.805,6.029,13.2965,4.59971,2469.923,2020-3-10T16:52:35Z
2020-03-10T14:55:02Z,42.805,6.029,13.2964,4.59976,2469.89,2020-3-10T16:55:39Z
2020-03-10T14:58:05Z,42.805,6.029,13.2965,4.59973,2469.9,2020-3-10T16:58:42Z
2020-03-10T15:01:08Z,42.805,6.029,13.2969,4.59968,2469.923,2020-3-10T17:01:45Z
2020-03-10T15:04:12Z,42.805,6.029,13.2964,4.59971,2469.923,2020-3-10T17:04:48Z
2020-03-10T15:07:15Z,42.805,6.029,13.2968,4.59973,2469.923,2020-3-10T17:07:52Z
2020-03-10T15:10:18Z,42.805,6.029,13.2968,4.59972,2469.914,2020-3-10T17:10:55Z
2020-03-10T15:13:21Z,42.805,6.029,13.2968,4.59969,2469.914,2020-3-10T17:13:58Z